Theta_e
338 332 333 327 322 322 322 328 332 333 334 335 334 333 333 327 327 331 332 333 328 320 319 318 317 318 319 321 323 322 321 321 322 325 323 328 327 321 318 324 322 325 325
338 333 327 324 320 322 320 327 331 333 334 335 335 334 333 326 323 331 331 330 328 321 318 312 312 312 314 316 317 316 317 318 322 326 327 324 325 320 322 326 327 325 323
335 333 326 324 319 318 314 319 328 332 334 334 334 333 332 322 324 330 326 331 329 325 317 311 312 313 313 313 315 315 317 319 323 327 326 326 323 321 313 316 320 316 314
338 336 324 324 316 314 312 313 318 327 329 330 326 324 319 319 329 328 324 330 330 326 316 312 313 313 313 313 314 315 314 315 321 326 326 325 323 318 309 306 306 306 305
336 336 329 323 313 314 323 323 315 315 316 316 318 324 317 329 329 328 322 329 329 328 320 313 314 314 313 313 313 313 313 318 323 323 319 321 318 306 305 304 304 304 305
335 335 331 324 312 322 331 327 324 316 317 317 322 322 323 327 327 329 322 328 327 325 314 314 314 315 315 314 314 314 314 318 322 323 323 314 314 314 313 312 312 313 313
334 334 331 324 312 327 331 330 326 317 319 325 317 318 317 317 324 328 321 317 318 314 314 314 315 315 316 316 316 315 315 318 323 324 321 317 317 317 317 317 317 317 317
334 333 331 324 314 325 330 330 325 321 325 316 313 323 314 310 314 326 326 317 314 313 313 314 315 316 316 316 315 315 316 320 321 323 320 318 318 318 319 319 319 319 319
334 334 332 324 315 322 327 327 326 323 328 328 328 326 313 312 311 315 321 314 313 313 314 315 316 317 317 316 316 316 317 318 320 321 320 319 319 320 319 319 320 320 320
332 334 332 328 322 315 321 325 324 322 326 322 322 316 313 312 312 312 312 313 313 313 315 316 317 318 318 318 318 318 318 320 321 322 320 320 320 321 323 322 323 323 323
333 336 333 329 328 327 313 316 316 316 319 319 318 315 315 317 316 316 313 313 313 314 316 317 319 319 318 318 318 318 320 321 322 322 321 321 321 321 322 324 323 323 323
327 333 333 329 326 326 316 314 314 315 318 322 318 319 320 320 318 314 314 314 314 315 317 318 319 320 319 320 319 320 320 321 321 321 321 321 321 321 321 321 321 322 323
320 333 335 329 322 318 317 316 316 316 317 322 321 317 316 316 316 317 316 317 316 316 317 319 320 320 320 319 319 320 321 322 322 322 321 321 320 320 321 321 321 322 322
326 331 335 330 324 320 317 317 318 318 318 318 319 319 319 319 319 319 319 319 319 318 318 319 320 320 320 319 321 321 320 320 320 321 321 320 319 319 320 320 320 319 320
327 328 328 332 326 321 321 321 320 321 320 320 320 321 321 322 321 322 322 322 322 321 321 321 321 321 320 321 321 320 321 321 320 321 320 320 319 319 319 318 316 315 315
326 318 318 328 330 320 319 323 321 322 321 321 322 322 322 322 323 323 323 323 323 322 322 323 322 321 320 321 320 320 320 321 321 320 320 319 319 319 316 314 310 305 302
322 320 315 320 326 324 318 319 319 319 320 321 322 322 323 323 323 324 324 324 322 320 320 320 321 321 321 320 321 320 321 321 321 320 319 318 318 315 310 302 299 298 298
323 317 315 316 317 318 319 319 319 319 320 320 321 322 323 324 324 324 324 324 323 322 323 323 322 321 321 320 321 323 323 322 321 319 318 317 314 309 301 298 298 297 297
322 319 317 317 317 316 316 318 319 320 320 321 321 322 324 325 325 325 325 325 324 323 324 322 321 321 320 321 321 321 322 321 320 318 317 311 308 301 297 297 297 297 296
324 320 318 318 318 317 317 317 319 319 320 321 322 323 325 326 327 324 324 325 324 324 322 322 321 320 321 320 320 322 322 320 319 317 311 306 300 297 297 296 296 296 295
329 325 319 318 319 319 319 319 320 321 321 322 323 324 327 327 326 325 324 323 324 323 322 322 321 321 320 320 320 322 322 319 318 315 308 301 298 297 296 296 296 295 295
333 332 329 321 319 319 320 320 321 322 323 325 325 326 328 327 326 325 323 323 322 322 321 321 321 321 321 321 320 319 321 319 318 314 305 299 297 296 296 295 295 295 294
333 333 331 330 327 323 322 323 325 326 327 328 327 328 329 327 326 325 324 323 323 322 322 322 321 322 321 320 320 319 319 320 318 313 305 300 296 296 295 295 295 294 293
326 330 330 331 331 330 329 329 330 329 329 329 329 329 328 327 325 325 324 324 324 324 323 323 323 323 323 321 319 319 318 317 315 312 305 299 296 295 294 294 294 293 292
324 322 326 328 329 331 331 329 330 330 330 330 329 329 328 326 326 325 323 325 324 325 324 324 323 324 322 320 319 318 318 317 313 305 305 302 297 295 294 294 294 292 292
321 319 319 321 324 329 331 329 329 329 330 331 331 331 331 329 328 326 324 324 323 323 323 322 321 323 321 319 318 318 317 314 303 298 297 297 295 295 294 293 293 292 292
Wind_Speed
10 12 8 5 4 4 8 9 9 9 10 11 11 12 11 11 11 11 10 9 11 12 13 12 12 12 11 10 10 11 11 12 14 17 18 18 20 17 17 19 17 17 16
14 10 6 6 3 4 7 12 9 9 8 6 8 9 8 9 9 12 13 13 14 15 17 15 14 13 12 12 12 12 13 15 20 23 20 19 20 18 18 20 18 17 18
13 11 7 6 4 4 5 9 12 10 9 7 6 7 6 7 11 13 12 17 15 16 16 15 14 14 13 13 13 13 15 17 21 22 13 21 20 19 16 15 15 15 15
12 10 9 8 6 6 7 8 9 10 9 8 7 6 8 12 13 12 16 17 16 16 15 15 15 15 15 15 15 15 15 15 18 18 15 14 15 17 17 16 15 16 17
13 12 9 8 7 8 9 9 8 8 8 8 11 12 14 16 15 14 13 17 15 14 14 16 17 17 17 16 15 15 16 19 20 16 15 14 15 19 19 18 18 18 18
13 11 11 9 8 11 10 7 6 7 10 11 14 13 14 17 15 14 13 18 15 14 15 15 15 15 16 16 17 17 15 19 15 16 15 18 20 20 20 20 19 19 20
16 11 12 10 10 13 10 8 5 7 10 12 12 13 11 13 15 14 12 14 15 14 14 14 14 15 15 16 17 17 16 19 16 16 16 18 20 20 19 19 19 19 19
13 12 12 11 12 14 10 7 6 9 10 10 11 12 12 11 12 14 12 12 14 13 12 13 13 14 14 15 16 17 16 19 15 15 15 16 17 17 17 17 17 17 18
13 13 12 12 13 16 13 9 5 9 11 12 12 11 11 10 11 11 11 11 12 11 11 11 12 13 13 14 14 15 15 17 14 14 12 15 15 16 16 15 15 16 17
14 13 12 12 12 14 15 12 9 9 11 11 10 10 9 9 10 10 9 10 10 10 10 10 11 12 12 12 12 13 12 15 12 11 14 14 14 13 14 15 16 17 18
19 14 14 13 13 11 13 13 10 9 9 11 11 10 10 9 8 7 8 8 8 8 8 9 10 10 11 11 11 11 13 11 10 10 13 13 13 13 13 14 14 14 14
22 19 17 15 14 14 13 13 11 10 9 8 9 9 8 8 7 7 6 6 6 6 7 8 8 8 10 8 8 10 9 10 10 11 13 13 13 14 13 15 14 13 14
22 18 18 18 15 14 13 13 12 12 12 11 10 9 8 7 6 6 5 5 5 5 5 5 5 6 6 6 7 8 9 9 9 9 12 13 15 14 14 14 15 14 12
20 19 19 20 17 15 13 11 11 10 10 9 9 8 7 7 6 6 5 4 4 3 3 3 3 4 4 5 6 7 8 8 9 9 12 14 15 13 11 11 12 13 14
20 20 22 21 20 17 15 14 13 12 12 11 11 10 8 6 5 5 4 3 2 2 2 2 2 2 2 3 4 6 7 9 10 10 13 14 13 12 12 14 14 14 12
21 25 25 25 23 21 20 16 15 14 13 12 11 9 8 7 6 5 4 3 2 2 3 3 1 0 1 1 3 5 7 8 10 10 9 12 11 12 13 14 14 14 14
24 24 26 27 26 24 21 19 17 15 14 14 12 11 10 9 8 6 5 4 4 2 2 2 2 1 1 4 6 7 8 10 10 9 7 6 11 12 12 12 13 13 13
23 24 24 25 25 25 24 22 19 18 17 16 15 14 13 11 10 9 9 7 6 5 4 3 0 2 3 5 6 7 7 10 10 7 7 5 7 8 11 12 12 12 14
27 25 26 26 25 23 22 21 20 20 19 18 17 16 16 14 13 12 12 10 8 8 6 3 5 5 6 7 9 11 9 9 5 5 5 7 5 7 11 13 12 12 14
28 28 28 27 26 25 24 22 22 21 22 22 20 19 17 15 12 10 8 10 11 10 9 8 7 6 8 8 11 10 9 5 3 3 4 2 5 9 11 10 11 13 13
28 30 30 30 30 28 28 28 28 28 27 25 23 21 18 16 14 13 11 10 12 11 11 10 10 10 10 9 10 5 9 5 2 1 1 3 5 11 11 10 10 10 12
28 28 30 33 32 32 31 31 29 28 27 26 25 23 21 19 18 17 14 14 12 11 13 13 12 13 12 11 9 12 5 3 4 2 3 4 8 11 9 8 9 9 14
33 32 33 34 34 35 33 31 30 26 25 26 27 27 23 21 20 21 19 18 17 17 16 17 15 14 14 14 14 10 5 4 7 7 6 6 9 8 8 9 9 13 17
38 37 36 35 34 35 35 34 33 33 32 31 29 27 22 24 21 22 21 21 21 20 20 21 17 17 16 16 16 14 14 13 5 5 8 8 9 8 8 10 9 13 17
35 38 40 39 39 37 37 37 37 37 34 27 27 28 26 25 24 22 21 21 22 23 23 20 19 20 17 17 17 17 16 13 14 12 7 6 8 10 8 9 7 13 16
36 37 38 40 41 40 38 40 41 40 37 32 30 30 29 29 27 25 23 21 21 24 25 24 24 23 19 19 19 20 17 14 13 13 11 11 8 10 9 9 8 13 16
Wind_Direction
144 153 150 128 111 125 135 134 125 125 125 121 124 117 106 88 94 105 97 89 95 92 96 95 87 85 84 85 84 77 71 65 63 65 53 66 62 59 62 57 55 65 60
151 160 141 121 152 122 138 149 144 126 128 145 136 129 105 104 99 104 95 92 84 88 83 81 79 81 84 84 83 82 79 72 69 64 46 46 57 57 68 72 66 54 55
145 156 150 147 146 131 126 149 157 158 137 143 145 146 136 122 108 110 99 96 90 88 85 85 83 83 86 86 84 80 76 77 80 70 44 53 49 54 61 68 63 54 49
145 145 153 146 136 127 123 133 155 168 177 182 143 133 128 124 109 93 101 97 89 89 87 86 83 78 78 81 82 78 76 74 79 82 64 56 51 56 58 56 54 50 45
143 157 143 132 128 122 118 111 121 142 156 141 123 119 122 112 108 103 102 101 97 93 86 84 78 78 79 77 76 76 79 80 69 60 72 71 60 57 57 56 54 53 50
151 165 142 134 134 130 122 121 109 124 122 125 119 116 122 123 115 110 104 110 104 93 85 81 79 77 74 74 75 74 74 78 71 68 63 62 62 59 57 56 54 52 50
164 167 144 137 137 131 130 137 117 133 123 121 122 124 116 115 114 108 103 106 101 91 84 82 79 77 75 74 72 71 74 73 71 67 65 64 61 57 54 52 51 48 46
161 166 151 142 142 139 138 139 119 118 131 129 125 115 111 109 114 110 109 99 98 89 84 82 77 75 73 71 71 71 70 75 67 65 57 56 54 50 46 44 42 40 39
172 169 161 153 152 156 154 155 128 121 121 121 123 122 109 112 110 109 111 98 94 87 83 84 80 76 73 71 71 72 70 70 60 64 53 44 44 36 34 33 32 31 31
166 168 167 158 149 159 166 165 155 128 129 138 127 109 108 102 104 101 99 97 91 86 84 85 83 77 73 69 67 66 64 57 55 49 40 36 30 32 18 18 18 21 17
163 177 175 158 157 160 167 164 162 142 131 131 132 120 108 104 102 109 104 99 96 93 92 86 83 78 73 66 61 56 56 53 45 43 28 24 18 17 13 11 9 5 4
176 169 186 166 164 162 166 159 162 155 147 151 144 129 138 130 129 107 103 100 98 98 89 84 82 77 62 55 46 47 49 48 34 27 19 11 6 2 0 357 356 355 356
186 176 187 175 173 173 170 167 169 168 167 162 161 153 144 132 126 113 112 108 105 112 97 86 80 72 62 62 55 48 44 35 29 20 3 359 355 353 356 360 2 5 1
191 186 183 189 178 179 179 178 180 176 173 173 164 158 156 155 153 144 141 130 111 110 113 90 88 74 60 57 51 40 25 25 14 7 347 351 350 353 357 356 352 353 357
193 191 191 192 189 188 182 182 190 189 182 184 183 179 174 173 169 163 158 147 156 165 156 141 114 84 58 65 43 22 17 4 357 356 338 346 352 352 350 351 352 354 360
193 204 192 193 196 192 191 191 196 194 193 195 196 195 196 195 192 188 187 196 211 212 194 184 202 223 57 47 8 356 348 345 342 346 347 346 351 350 349 350 354 356 359
200 205 201 199 200 202 200 202 206 209 205 205 209 211 213 214 214 214 219 226 223 194 171 150 104 87 15 349 340 340 335 332 333 338 347 346 343 348 354 357 357 358 354
202 207 207 208 209 210 208 204 206 211 215 217 220 221 225 225 228 226 230 230 226 212 194 157 210 324 312 319 330 326 324 321 322 329 332 334 338 344 347 353 351 345 344
205 205 209 210 212 214 219 217 215 216 217 220 224 227 230 230 236 242 242 237 226 213 203 243 278 285 295 307 316 318 310 305 310 322 335 343 1 357 348 348 347 351 349
206 209 213 214 214 214 215 218 221 226 228 228 229 230 231 233 239 258 248 239 228 211 225 243 253 282 291 292 305 319 299 294 277 320 336 358 340 350 349 354 350 350 358
210 211 213 215 215 217 217 218 221 225 229 232 232 232 229 237 245 250 241 240 227 223 237 247 266 275 286 292 303 305 301 290 271 215 324 323 342 342 345 349 351 349 352
208 209 216 219 220 222 224 227 229 232 235 237 238 238 236 235 244 251 244 241 245 244 245 254 267 275 278 287 290 306 233 230 195 264 233 314 329 337 338 344 348 352 349
211 213 215 222 224 225 225 227 230 230 232 234 234 235 234 241 244 250 250 244 244 248 252 255 255 259 267 279 283 266 264 227 180 269 248 272 309 325 331 345 353 354 356
220 218 222 220 224 227 227 227 229 231 233 234 239 245 238 243 247 247 239 243 247 252 250 253 255 256 254 269 274 261 250 242 213 218 245 272 312 324 333 339 341 354 357
223 225 226 226 226 226 228 230 233 238 241 241 244 242 238 238 244 241 240 246 249 249 252 253 258 269 256 274 267 259 262 251 236 221 217 238 301 304 310 325 328 349 356
230 230 232 231 232 229 227 234 235 239 239 238 237 241 238 238 240 235 242 247 251 252 255 257 260 256 256 264 250 254 252 244 235 231 233 250 262 279 295 318 327 345 352